AirNav   Air Wisconsin pilot careers
 
 430 users online  

MD1 Massey Aerodrome
Massey, Maryland, USA

GOING TO MASSEY?


FAA INFORMATION EFFECTIVE 19 JULY 2018

Location

FAA Identifier: MD1
Lat/Long: 39-17-57.7000N / 075-47-57.8000W
39-17.961667N / 075-47.963333W
39.2993611 / -75.7993889
(estimated)
Elevation: 73 ft. / 22 m (estimated)
Variation: 12W (2000)
From city: 2 miles E of MASSEY, MD
Time zone: UTC -4 (UTC -5 during Standard Time)
Zip code: 21650

Airport Operations

Airport use: Open to the public
Activation date: 01/2002
Control tower: no
ARTCC: NEW YORK CENTER
FSS: LEESBURG FLIGHT SERVICE STATION
NOTAMs facility: DCA (NOTAM-D service available)
Attendance: DAWN-DUSK
Wind indicator: yes
Segmented circle: no

Airport Communications

CTAF: 122.9
WX AWOS-3 at EVY (14 nm N): 132.325 (302-378-2063)

Nearby radio navigation aids

VOR radial/distance  VOR name  Freq  Var
ENOr296/13.8SMYRNA VORTAC111.4009W
PPMr129/19.9PHILLIPS VOR/DME108.4009W
DQOr211/24.4DUPONT VORTAC114.0010W
OODr239/30.6WOODSTOWN VORTAC112.8010W
MXEr198/37.6MODENA VORTAC113.2009W

 
NDB name  Hdg/Dist  Freq  Var  ID
RAINBOW268/31.636311WRNB .-. -. -...

Airport Services

Parking: tiedowns

Runway Information

Runway 2/20

Dimensions: 3000 x 100 ft. / 914 x 30 m
Surface: turf, in good condition
Runway edge markings: RY 20 DSPLCD THLD MARKED WITH 3 ORANGE TRAFFIC CONES ON BOTH SIDES.
RUNWAY 2  RUNWAY 20
Latitude: 39-17.721833N39-18.200500N
Longitude: 075-48.042333W075-47.883333W
Traffic pattern: leftleft
Displaced threshold: no120 ft.
Markings: numbers only, in fair conditionnumbers only, in fair condition
Obstructions: 59 ft. trees, 1886 ft. from runway, 98 ft. right of centerline, 31:1 slope to clear19 ft. trees, 248 ft. from runway, 13:1 slope to clear
APCH RATIO 20:1 TO DSPL THLD

Airport Ownership and Management from official FAA records

Ownership: Privately-owned
Owner: MASSEY AERO LLC
33541 MARYLAND LINE RD
MASSEY, MD 21650
Phone 410-928-5270
Manager: JOHN WILLIAMSON
33541 MARYLAND LINE RD
MASSEY, MD 21650
Phone 410-928-5270

Airport Operational Statistics

Aircraft based on the field: 21
Single engine airplanes: 13
Gliders airplanes: 8
    
Aircraft operations: avg 99/week *
70% local general aviation
23% transient general aviation
7% military
* for 12-month period ending 03 October 2017

Additional Remarks

GLIDERS,HANG-GLIDERS,POWERED PARACHUTES, ULTRALIGHT ACTIVITY, ON AND INVOF. AIRPORT
RY THLDS AND SIDES MARKED WITH ORANGE TRAFFIC CONES.

Instrument Procedures

There are no published instrument procedures at MD1.

Some nearby airports with instrument procedures:

33N - Delaware Airpark (10 nm SE)
KEVY - Summit Airport (14 nm N)
58M - Claremont Airport (17 nm N)
KDOV - Dover Air Force Base (19 nm SE)
KAPG - Phillips Army Airfield (20 nm NW)
KRJD - Ridgely Airpark (20 nm S)
 
Loc | Ops | Rwys | IFR | FBO | Links
Com | Nav | Svcs | Stats | Notes


 
Area around MD1 (Massey Aerodrome)
 
Road maps at: MapQuest Bing Google
 
Aerial photo
WARNING: Photo may not be current or correct
Aerial photo of MD1 (Massey Aerodrome)
Photo taken 16-Sep-2016
looking north.

Do you have a better or more recent aerial photo of Massey Aerodrome that you would like to share? If so, please send us your photo.

 
Sectional chart

 
Airport distance calculator
Flying to Massey Aerodrome? Find the distance to fly.

From to MD1

Sunrise and sunset
Times for 23-Jul-2018
 Local
(UTC-4)
 Zulu
(UTC)
Morning civil twilight05:2609:26
Sunrise05:5609:56
Sunset20:2300:23
Evening civil twilight20:5400:54

Current date and time
Zulu (UTC)  23-Jul-2018 06:06:33
Local (UTC-4)  23-Jul-2018 02:06:33
 
METAR
KDOV 
19nm SE 
230556Z AUTO 11007KT 10SM OVC013 25/24 A2992 RMK AO2 SLP135 T02510239 10254 20249 58004 TSNO $
KILG 
24nm NE 
230551Z AUTO 14016G22KT 10SM SCT011 BKN017 OVC070 26/24 A2994 RMK AO2 SLP139 T02560239 10267 20256 58000 $
KMTN 
29nm W 
230536Z AUTO 09009KT 7SM OVC022 25/25 A2990 RMK AO2 LTG DSNT SW THRU NW
KW29 
31nm SW 
230535Z AUTO 12010KT 7SM OVC014 25/24 A2989 RMK AO2 LTG DSNT N AND NW
TAF
KDOV 
19nm SE 
230510Z 2305/2406 14012KT 9999 OVC015 QNH2991INS BECMG 2306/2308 14012KT 9999 BKN008 OVC015 QNH2991INS BECMG 2314/2315 14015G25KT 9000 -SHRA OVC007 QNH3000INS BECMG 2323/2324 14012KT 9999 NSW OVC005 QNH3005INS TX29/2318Z TN24/2323Z
NOTAMs
Click for the latest NOTAMs
NOTAMs are issued by the DoD/FAA and will open in a separate window not controlled by AirNav.

 

 
 

Would you like to see your business listed on this page?

 If your business provides an interesting product or service to pilots, flight crews, aircraft, or users of the Massey Aerodrome, you should consider listing it here.  To start the listing process, click on the button below
 
Add a business
 

Other Pages about Massey Aerodrome

Update a link
 
Copyright © AirNav, LLC. All rights reserved. Privacy Policy  Contact